Weather Service Report


016 
ASUS43 KFSD 311110
RWRSD 

WEATHER ROUNDUP FOR SOUTH DAKOTA
NATIONAL WEATHER SERVICE SIOUX FALLS SD
600 AM CDT THU JUL 31 2014

NOTE: "FAIR" INDICATES FEW OR NO CLOUDS BELOW 12,000 FEET WITH NO
SIGNIFICANT WEATHER AND/OR OBSTRUCTIONS TO VISIBILITY.


SDZ001>005-009-010-012>017-311200-
NORTHWEST AND NORTH CENTRAL SOUTH DAKOTA
  
CITY           SKY/WX    TMP DP  RH WIND       PRES   REMARKS
BUFFALO          N/A     59  50  72 NE13      30.10R                  
FAITH            N/A     57  52  83 NW8       30.12R                  
MOBRIDGE       CLEAR     61  53  75 E10       30.08R                  
$$
 
SDZ012>016-024>037-041>051-057-063-072>074-311200-
SOUTHWEST AND SOUTH CENTRAL SOUTH DAKOTA
  
CITY           SKY/WX    TMP DP  RH WIND       PRES   REMARKS
RAPID CTY ARPT CLEAR     57  47  69 W7        30.16S                  
PIERRE         CLEAR     57  54  89 N6        30.06R                  
CUSTER         CLEAR     49  39  68 W3        30.29S                  
ELLSWORTH AFB  CLEAR     57  48  73 W6        30.16S                  
PHILIP         CLEAR     55  51  86 W6        30.10R                  
PINE RIDGE     CLEAR     48  46  93 CALM      30.17S                  
WINNER         FAIR      57  53  86 CALM      30.05R                  
$$
 
SDZ004>011-016>023-039-040-311200-
NORTHEAST SOUTH DAKOTA
  
CITY           SKY/WX    TMP DP  RH WIND       PRES   REMARKS
ABERDEEN       PTCLDY    56  54  93 CALM      30.09S                  
WATERTOWN      CLEAR     54  52  93 CALM      30.09S                  
SISSETON         N/A     55  53  93 W5        30.06R                  
$$
 
SDZ017-020-022-023-036>040-048>070-311200-
SOUTHEAST SOUTH DAKOTA
  
CITY           SKY/WX    TMP DP  RH WIND       PRES   REMARKS
SIOUX FALLS    PTCLDY    53  52  96 N5        30.09S                  
HURON          PTCLDY    57  55  93 E5        30.06F                  
CHAMBERLAIN    CLEAR     63  55  77 SE8       30.05S                  
MITCHELL       CLOUDY    67  60  78 S5        30.07F                  
YANKTON        MOCLDY    61  55  82 N3        30.09S                  
$$
 
ABBREVIATIONS USED IN REMARKS
   TC - TEMPERATURE IN CELSIUS
  WCI - WIND CHILL INDEX
   HX - HEAT INDEX
  VSB - VISIBILITY



018 
ASUS43 KFSD 311110
RWRFSD

WEATHER ROUNDUP FOR SE SOUTH DAKOTA/SW MINNESOTA/NW IOWA
NATIONAL WEATHER SERVICE SIOUX FALLS SD
600 AM CDT THU JUL 31 2014

NOTE: "FAIR" INDICATES FEW OR NO CLOUDS BELOW 12,000 FEET WITH NO
SIGNIFICANT WEATHER AND OR OBSTRUCTIONS TO VISIBILITY.


SDZ038>040-050-052>070-311200-
SOUTHEAST SOUTH DAKOTA
  
CITY           SKY/WX    TMP DP  RH WIND       PRES   REMARKS
CHAMBERLAIN    CLEAR     63  55  77 SE8       30.05S                  
HURON          PTCLDY    57  55  93 E5        30.06F                  
MADISON        PTSUNNY   54  54 100 E3        30.10R                  
MITCHELL       CLOUDY    67  60  78 S5        30.07F                  
SIOUX FALLS    PTCLDY    53  52  96 N5        30.09S                  
WINNER         FAIR      57  53  86 CALM      30.05R                  
YANKTON        MOCLDY    61  55  82 N3        30.09S                  
$$

MNZ071-072-080-081-089-090-097-098-311200-
SOUTHWEST MINNESOTA
  
CITY           SKY/WX    TMP DP  RH WIND       PRES   REMARKS
FAIRMONT       MOCLDY    57  50  77 CALM      30.08S                  
JACKSON        CLEAR     57  52  82 W5        30.09S                  
LUVERNE        CLEAR     54  52  94 CALM      30.11R                  
MARSHALL       CLEAR     54  48  82 W3        30.07R                  
MONTEVIDEO     CLEAR     57  54  88 NW6       30.07S                  
PIPESTONE      PTCLDY    55  52  88 CALM      30.10S                  
REDWOOD FALLS  CLEAR     56  54  93 CALM      30.06R                  
TRACY          CLEAR     58  54  86 SW7       30.08S                  
WINDOM         CLEAR     54  52  94 CALM      30.09R                  
WORTHINGTON    PTCLDY    55  50  82 W5        30.11R                  
$$

IAZ001>003-012>014-020>022-031-032-NEZ013-014-SDZ071-311200-
NORTHWEST IOWA
  
CITY           SKY/WX    TMP DP  RH WIND       PRES   REMARKS
CHEROKEE       CLEAR     50  50 100 CALM      30.10S                  
DENISON        CLEAR     50  50 100 CALM      30.10S                  
ESTHERVILLE    MOCLDY    56  54  93 W5        30.08S                  
LE MARS        CLEAR     52  50  93 CALM      30.10S                  
ORANGE CITY    CLEAR     57  54  88 CALM      30.10S                  
SHELDON        CLEAR     50  48  93 CALM      30.09R                  
SIOUX CITY     CLEAR     56  53  90 E3        30.10S                  
SPENCER        FOG       50  48  93 CALM      30.10R VSB 1/2          
STORM LAKE     CLEAR     57  54  88 W6        30.11S                  
$$
 
ABBREVIATIONS USED IN REMARKS
   TC - TEMPERATURE IN CELSIUS
  WCI - WIND CHILL INDEX
   HX - HEAT INDEX
  VSB - VISIBILITY


Return to Home page


Western Regional Climate Center, wrcc@dri.edu